Theta_e
321 323 325 327 327 324 324 322 322 321 321 320 322 323 323 323 325 326 316 315 319 321 323 326 327 328 328 330 331 333 334 335 334 335 336 335 336 335 336 337 336 337 338 339 339 339 339 339 337
322 322 325 329 327 326 323 322 320 320 321 319 319 320 320 323 320 317 316 311 317 319 321 322 322 322 323 325 328 328 329 330 331 332 332 332 331 331 332 333 333 335 337 338 338 338 337 337 336
321 321 329 327 325 322 322 321 320 320 318 319 319 318 320 321 318 319 312 310 316 317 319 318 319 319 319 320 321 321 321 324 323 324 327 326 326 324 326 327 327 328 328 329 331 333 335 334 334
321 322 321 322 322 322 320 320 320 319 318 317 319 319 316 315 316 317 308 308 313 315 316 315 317 317 316 316 315 315 315 316 316 319 318 316 315 315 317 318 319 321 324 325 327 328 328 328 330
319 324 324 322 321 320 319 319 319 319 319 318 317 319 318 312 311 309 306 305 308 312 312 312 312 313 313 312 311 311 308 307 307 310 311 308 307 308 307 309 307 307 308 314 319 322 323 324 326
323 322 323 324 323 321 319 318 319 319 319 318 317 318 318 312 309 308 305 304 304 305 306 307 307 308 308 306 305 305 305 305 303 301 300 299 298 299 300 303 306 299 298 299 303 305 308 314 320
324 325 325 324 322 321 320 318 319 319 320 318 317 318 316 310 309 306 305 303 303 303 302 303 303 301 299 300 299 301 302 300 298 296 296 296 296 296 296 296 296 297 297 297 297 297 297 298 299
321 321 323 322 322 322 319 317 317 318 319 315 316 318 319 313 308 305 304 303 302 302 301 302 301 301 302 299 295 295 295 295 295 295 295 297 300 297 296 295 295 295 295 295 295 296 296 296 296
321 322 324 323 321 322 318 317 316 313 317 314 315 315 311 311 306 304 303 303 302 301 300 300 301 300 300 299 295 295 295 295 295 297 295 300 300 298 299 295 294 295 295 295 296 296 295 297 301
321 324 323 321 320 319 319 317 318 315 316 316 315 314 307 308 305 305 305 304 303 301 300 299 300 300 299 297 298 298 297 298 297 297 297 298 299 295 296 297 296 295 295 297 298 299 299 300 301
322 322 320 320 318 317 318 317 317 316 318 318 318 317 310 308 306 306 306 306 304 303 301 299 299 299 299 297 299 299 299 298 298 297 296 296 298 296 296 297 296 295 297 297 296 297 298 298 300
321 321 319 319 317 316 317 317 316 316 318 316 317 317 313 309 308 307 307 307 305 304 301 298 299 298 299 299 299 299 299 298 298 297 294 297 297 295 295 296 296 295 296 296 295 295 296 297 298
320 320 318 317 317 316 316 316 317 318 318 317 315 311 313 310 309 308 307 307 306 303 301 299 298 298 298 298 298 298 298 297 297 296 293 294 295 293 294 295 295 294 294 294 294 295 295 295 297
319 318 318 318 317 317 316 317 315 318 317 317 317 314 312 312 310 309 307 307 305 302 300 298 298 298 297 297 297 297 297 296 296 295 294 292 292 292 292 293 293 293 292 292 293 293 294 294 295
316 318 319 319 317 316 315 316 317 317 316 315 315 314 313 312 311 310 308 306 305 302 300 298 298 297 297 297 297 296 296 295 294 294 292 291 291 291 291 292 292 292 291 291 292 292 293 293 294
317 318 319 320 317 316 315 316 317 317 317 315 315 316 314 313 311 310 308 306 304 301 299 298 297 296 296 296 295 295 294 294 293 292 292 291 290 290 290 290 290 290 290 290 291 291 292 292 293
320 320 320 320 317 317 316 316 316 316 316 315 315 315 316 314 311 309 308 306 304 301 299 298 296 296 295 295 294 294 293 293 292 291 291 290 290 289 289 289 289 289 289 290 290 291 291 291 292
318 318 319 319 318 316 316 316 316 316 316 316 316 315 315 315 314 309 307 306 303 300 299 297 296 295 295 294 293 292 292 292 291 291 290 289 289 288 288 288 288 288 289 289 290 290 290 291 291
318 318 317 317 318 316 317 316 317 317 316 316 316 316 315 315 315 309 307 305 302 299 298 297 296 295 294 293 293 292 292 292 291 290 289 289 288 288 288 287 287 287 288 288 288 289 290 290 291
317 317 317 318 319 314 316 316 316 316 316 316 315 315 314 315 314 309 307 304 301 298 297 296 295 295 294 293 293 293 292 292 291 290 289 288 288 288 287 286 286 287 287 288 288 289 289 289 290
316 317 318 318 319 315 315 316 316 316 314 314 313 313 313 313 313 309 306 303 300 298 297 296 295 294 293 293 292 290 289 289 289 289 289 288 287 286 286 285 285 286 286 287 287 288 288 288 288
317 317 318 318 318 319 314 318 317 316 315 314 312 314 315 312 310 308 305 302 300 298 296 296 295 294 293 291 290 289 290 291 291 291 289 288 286 286 285 285 285 285 285 286 286 286 286 286 287
317 312 315 316 317 319 317 317 316 312 313 313 313 315 316 313 310 307 305 301 299 297 296 295 294 293 292 291 290 289 290 290 290 288 287 287 286 285 285 285 284 284 284 285 285 285 285 285 285
310 312 312 312 314 319 316 318 317 316 314 314 314 314 315 312 309 307 304 301 299 297 295 295 294 293 291 290 289 289 290 289 288 287 287 287 286 285 284 284 283 283 283 283 283 283 283 284 284
311 315 318 323 323 321 317 316 317 316 314 314 314 314 315 311 309 308 305 302 299 297 295 294 294 292 291 289 289 289 289 289 288 287 287 286 285 284 284 283 282 282 281 281 281 281 282 282 282
312 316 320 327 320 320 314 317 316 316 315 313 313 313 312 310 309 308 306 302 299 297 295 294 293 293 291 289 289 288 288 287 287 286 285 284 283 283 282 281 280 280 280 279 279 280 280 281 281
313 314 315 321 321 321 317 317 318 318 314 313 312 311 311 309 309 307 305 302 299 297 295 294 293 293 290 289 288 288 287 286 285 284 283 282 281 281 280 279 279 279 278 278 278 278 279 279 280
310 311 316 316 324 321 316 317 317 317 315 314 313 312 313 310 309 307 305 302 299 297 294 294 293 292 290 289 288 286 285 284 283 282 281 280 280 279 278 278 278 277 277 277 277 277 278 278 278
308 310 310 310 317 319 319 317 313 315 314 313 314 313 314 312 310 308 304 302 299 297 295 294 293 292 290 288 287 285 283 282 281 280 280 279 279 278 277 277 276 275 275 275 275 275 275 275 276
311 311 312 314 315 314 315 316 313 314 314 312 312 313 313 313 312 310 307 302 299 297 295 294 293 292 290 287 285 283 282 280 279 279 279 279 278 277 276 275 274 274 273 273 273 273 273 273 273
Wind_Speed
1 2 3 5 6 5 4 4 1 6 5 3 4 5 5 4 3 2 6 6 8 6 6 7 9 5 4 4 2 2 3 4 4 8 9 8 10 8 9 9 6 6 7 8 9 9 9 9 9
3 3 5 3 6 7 2 6 8 8 6 7 3 2 4 5 4 7 9 7 7 7 7 6 7 10 11 9 8 7 5 7 8 8 6 8 10 11 9 9 9 11 11 11 11 10 9 10 11
3 5 4 4 5 7 5 5 6 8 8 8 6 4 3 0 3 9 7 10 9 7 7 7 8 9 9 10 11 10 10 11 10 8 9 8 3 8 11 12 11 9 7 9 9 8 10 10 11
3 5 4 6 10 4 4 4 5 9 5 3 2 5 2 3 5 7 12 11 10 9 7 8 8 8 8 10 10 10 11 11 11 11 9 8 7 7 8 8 9 10 10 10 10 10 12 13 12
5 4 7 7 8 3 1 1 6 9 6 6 6 2 2 6 6 12 12 11 10 10 8 6 9 7 7 8 6 6 5 4 4 7 8 7 7 7 7 9 9 10 11 12 12 12 14 15 15
5 4 6 8 3 1 2 5 8 9 8 6 6 9 3 9 14 15 13 12 10 9 9 6 7 8 7 6 5 5 5 5 6 6 4 6 6 7 8 9 11 11 12 12 12 15 17 18 18
8 6 11 8 9 6 6 6 11 10 11 10 1 6 3 11 15 16 14 12 10 9 8 8 6 6 6 5 4 5 5 6 5 6 6 6 7 7 8 8 8 9 11 11 12 15 17 18 19
4 4 8 5 5 6 4 7 3 11 11 4 5 6 8 14 19 17 15 13 12 10 8 8 7 7 5 2 3 4 4 5 6 7 7 9 11 11 11 10 11 11 12 12 13 14 16 16 17
2 5 7 6 5 2 3 8 5 4 7 4 8 8 5 14 20 18 17 16 15 13 12 12 11 9 7 5 5 5 6 5 5 6 6 7 5 7 7 11 13 13 14 15 16 16 15 15 15
5 6 7 2 4 5 4 9 8 5 12 14 13 12 6 18 22 23 22 22 21 19 17 14 12 10 9 7 6 5 4 3 2 2 3 4 6 9 10 11 14 14 15 15 16 16 15 13 13
4 7 5 6 7 6 8 9 9 9 15 15 16 15 16 19 22 23 24 25 24 21 18 17 15 14 12 10 8 6 5 3 1 1 3 5 5 8 9 10 12 13 14 13 15 15 13 16 15
6 11 8 2 3 4 9 6 7 17 19 2 4 8 16 19 20 26 27 27 24 24 22 18 17 15 14 11 9 8 5 4 2 1 3 4 5 7 9 9 11 12 13 13 14 14 16 15 15
9 10 7 9 6 9 9 14 12 18 17 16 10 6 14 18 23 27 27 25 25 26 23 21 19 17 14 12 10 9 7 5 4 2 1 3 3 5 6 7 8 10 11 13 15 15 17 18 17
4 8 12 9 13 10 9 15 4 12 10 17 18 17 16 19 24 25 27 29 29 27 27 24 22 19 16 14 12 10 9 8 6 4 2 1 2 4 5 7 9 10 12 14 14 15 15 15 17
5 9 14 16 12 7 7 10 18 20 11 12 14 17 18 20 25 29 31 30 31 29 26 25 21 19 17 15 14 11 10 9 7 5 3 1 2 4 6 7 8 10 13 13 12 13 13 14 15
6 7 11 3 11 5 8 18 12 10 10 15 18 18 18 20 24 29 29 31 31 30 30 26 23 22 20 17 14 12 11 9 7 6 4 2 3 5 7 8 9 11 12 13 14 15 16 16 16
10 12 15 16 15 4 13 15 11 5 10 19 19 20 19 20 21 27 29 31 32 31 29 27 23 22 20 16 13 12 11 9 7 7 5 3 4 7 8 9 10 13 13 13 12 13 14 17 19
17 16 15 15 9 13 16 22 22 22 21 23 24 23 21 20 21 25 28 29 29 30 29 27 25 22 20 17 14 12 11 9 8 7 6 5 4 6 8 10 10 11 11 12 12 15 16 17 19
22 20 22 23 10 9 19 23 23 22 22 24 23 23 21 19 14 21 27 28 28 29 29 29 27 24 22 19 15 12 12 11 10 9 9 6 4 7 10 11 10 10 11 14 15 15 16 16 17
18 20 25 22 10 5 16 23 22 22 26 24 23 22 18 13 11 15 23 27 29 30 30 30 28 25 24 19 17 10 14 12 11 10 9 6 7 10 11 10 10 10 11 14 15 13 16 16 10
18 21 22 21 15 13 16 21 18 13 16 17 20 18 15 13 13 15 19 28 29 32 33 32 30 27 25 20 17 13 13 10 10 10 8 9 9 9 9 10 11 11 11 15 14 13 13 14 14
19 9 17 18 11 15 2 17 15 16 19 12 18 17 14 11 10 13 17 24 31 32 31 31 31 29 27 24 22 22 18 14 13 11 10 9 8 9 10 10 11 12 12 14 14 12 13 14 16
6 2 4 8 13 17 17 14 15 6 10 13 17 18 11 9 12 16 18 25 29 31 33 33 32 30 28 28 26 25 19 15 11 8 8 9 9 11 10 12 12 11 13 14 15 15 14 14 17
7 2 3 4 5 12 21 18 10 8 7 9 13 14 8 9 12 13 18 22 25 28 31 33 34 32 30 29 29 25 21 17 14 13 10 9 9 8 10 11 11 12 14 14 14 15 16 17 18
8 6 6 8 6 14 13 12 19 12 14 16 21 18 7 10 13 14 16 16 23 30 33 33 35 34 33 32 29 27 23 20 17 14 12 10 8 9 10 10 11 12 14 15 16 17 18 19 20
13 10 6 10 14 21 6 14 12 11 13 11 12 6 5 11 12 14 15 16 23 28 32 33 35 34 34 31 28 26 24 21 19 16 12 11 11 12 11 12 13 14 15 16 16 18 19 19 20
9 8 6 9 5 8 17 29 26 11 11 11 7 5 11 11 11 14 14 19 23 27 34 37 34 34 35 33 30 28 26 23 20 17 16 15 14 13 13 13 14 15 16 16 17 18 19 20 21
6 2 5 5 6 15 26 25 19 13 14 8 7 10 12 10 13 12 13 16 23 27 31 33 34 36 34 33 33 31 29 26 21 19 18 16 12 12 12 13 14 15 15 15 15 17 18 19 22
7 7 7 4 10 13 16 16 5 2 7 3 7 9 8 8 10 12 11 16 22 25 29 33 35 35 35 35 33 30 28 26 23 22 18 16 14 13 14 14 14 14 14 14 15 18 19 21 23
13 18 19 11 17 9 15 25 8 8 7 5 6 6 8 6 10 11 12 16 21 27 28 31 32 34 36 34 32 30 28 27 23 19 17 16 15 14 13 12 13 14 14 14 17 17 18 20 23
Wind_Direction
177 240 259 243 243 231 230 198 44 169 172 104 220 176 247 326 237 348 139 132 122 102 77 53 62 77 87 92 78 76 86 72 61 56 54 55 53 42 36 28 19 13 9 354 345 339 328 323 316
233 247 238 273 255 251 122 146 191 179 90 152 151 226 252 242 93 119 149 146 128 107 90 72 77 70 69 69 75 72 74 68 60 55 59 52 52 54 53 50 46 37 29 20 10 349 326 314 310
222 244 260 241 266 281 348 169 173 125 140 172 182 261 300 10 123 152 130 144 135 116 101 94 85 78 81 82 82 77 74 76 73 63 65 66 2 30 45 44 33 14 343 350 355 350 348 318 318
249 205 234 250 264 303 309 168 150 149 160 214 241 212 148 45 154 160 151 145 148 136 124 120 102 93 89 89 87 84 82 84 77 78 69 59 38 29 20 15 355 340 332 333 345 351 316 308 304
239 255 257 248 278 292 238 281 174 182 165 177 196 231 224 168 145 152 156 152 155 151 137 123 134 115 101 96 100 93 94 83 75 81 67 56 45 41 30 16 4 350 340 333 352 334 319 311 307
246 277 253 264 316 255 235 195 197 210 189 134 211 251 242 151 169 168 167 163 162 158 161 156 171 161 157 149 145 124 111 93 87 83 69 55 42 38 34 24 17 357 342 333 329 318 314 311 308
263 269 279 295 283 261 229 183 207 218 223 210 291 238 100 178 181 171 171 170 167 166 167 169 165 178 177 168 146 120 106 94 77 71 66 62 54 40 35 25 19 8 360 352 338 327 318 313 311
276 268 279 259 293 281 158 190 282 232 244 94 174 236 233 185 176 174 176 181 182 182 181 177 175 166 161 142 138 123 105 88 77 70 66 59 32 32 16 18 13 8 1 353 349 341 337 333 327
256 255 268 282 266 354 142 215 170 360 248 205 199 263 73 151 167 177 184 191 192 195 191 189 187 183 175 162 152 112 106 91 70 42 45 39 36 26 23 12 6 5 2 358 356 350 346 346 345
244 261 294 338 282 271 210 236 236 221 218 231 236 224 169 167 178 188 194 199 200 199 198 195 191 187 179 174 171 166 142 139 96 55 40 39 30 18 24 7 9 4 2 5 354 350 358 347 338
190 252 349 270 258 268 261 244 220 231 251 238 240 225 188 191 197 204 208 208 205 204 201 197 192 189 185 187 183 180 182 176 145 44 43 30 29 23 15 6 1 359 351 354 352 349 344 339 332
258 245 253 285 228 245 245 272 239 230 241 109 311 278 174 199 206 212 213 212 207 205 202 199 196 192 189 186 182 185 180 175 144 65 58 47 35 20 14 2 356 354 348 344 340 336 333 330 327
245 276 250 247 225 238 256 248 255 261 253 257 224 226 203 208 215 217 218 216 211 208 203 200 194 192 190 184 185 181 180 171 171 152 80 84 42 18 7 353 350 345 340 339 336 334 331 328 327
355 276 266 257 249 243 233 256 252 256 250 244 240 227 226 218 218 216 215 214 210 205 205 199 195 191 189 186 185 180 176 179 166 163 168 85 57 13 357 348 343 338 334 332 329 324 324 322 319
282 281 273 248 242 243 206 250 234 252 234 232 233 237 231 226 221 217 214 212 208 206 203 200 195 191 189 186 182 179 178 175 167 172 194 233 7 352 346 337 334 331 325 326 321 320 320 319 316
258 256 270 219 181 188 197 266 251 252 207 236 246 243 234 230 225 222 215 209 207 203 201 197 194 189 186 185 181 181 181 177 172 181 196 247 319 331 335 330 332 321 322 325 325 327 326 320 320
209 268 268 263 192 171 210 266 278 230 243 266 264 259 247 235 230 229 222 210 204 202 199 195 193 190 186 183 182 182 184 181 180 193 198 235 306 319 327 319 311 315 319 320 318 318 316 311 313
292 284 270 262 199 219 235 249 271 279 273 271 269 264 258 252 230 223 226 215 205 200 199 196 193 191 186 183 184 186 189 187 193 204 212 242 280 306 313 316 319 316 312 311 306 302 303 304 307
275 283 276 273 273 224 247 262 270 275 278 274 276 273 265 254 243 214 217 210 200 198 198 198 194 191 185 187 186 191 194 193 201 206 214 233 260 296 301 305 302 298 294 290 293 299 306 308 309
259 265 267 274 294 210 272 270 271 267 267 273 273 271 274 267 208 210 206 199 198 196 198 198 198 193 192 192 191 192 191 202 200 196 211 223 252 273 281 285 282 284 293 293 294 298 301 306 315
244 250 260 273 304 241 267 277 261 247 255 260 268 263 266 253 224 204 197 197 198 201 199 198 197 195 194 192 186 186 185 194 201 209 212 225 245 266 273 270 283 297 292 287 288 293 297 298 304
259 264 254 269 282 276 77 287 283 285 265 240 267 271 261 216 206 201 193 194 200 202 200 199 198 197 196 193 191 194 199 200 203 190 198 225 255 263 264 276 287 284 282 281 285 289 292 296 297
238 3 249 258 259 281 264 270 279 196 264 231 248 262 271 190 201 195 190 195 200 199 198 197 198 197 195 195 198 198 201 202 193 201 222 245 255 261 267 278 279 283 282 279 282 286 285 281 277
122 229 227 231 268 259 262 245 277 232 226 232 250 244 251 189 189 197 192 193 197 196 197 197 195 196 195 197 201 200 199 194 196 206 217 229 239 256 271 277 276 278 278 284 290 288 286 281 279
204 214 273 255 222 264 281 263 257 277 251 257 263 267 199 175 184 185 188 189 192 194 195 198 196 196 197 197 197 198 199 199 204 207 217 227 247 261 262 265 278 285 287 292 292 287 281 277 274
198 216 219 264 264 283 101 265 266 238 233 235 249 246 188 187 189 189 191 191 194 194 195 199 201 198 194 194 197 197 197 199 203 206 211 221 233 248 260 271 283 283 285 286 285 283 281 280 277
167 204 252 272 266 281 270 271 270 234 198 223 217 214 225 209 199 199 198 196 197 195 198 200 202 201 194 191 192 194 195 195 196 200 207 218 229 239 251 263 274 281 284 285 286 284 285 285 283
237 43 190 205 260 256 278 279 279 274 229 215 232 237 249 212 214 218 206 198 197 198 201 201 202 201 196 192 191 191 190 194 194 195 206 213 224 239 255 263 266 273 279 282 282 282 280 279 277
190 224 220 295 239 252 268 271 48 31 136 297 224 246 240 212 210 215 207 203 202 200 201 202 200 197 195 192 189 187 185 188 192 196 202 211 222 234 247 258 269 272 276 278 277 274 278 280 281
247 229 220 222 233 233 250 268 130 111 107 141 218 205 249 225 218 222 204 202 201 201 199 202 200 198 196 191 186 183 181 184 189 194 199 211 223 236 247 257 262 266 269 273 276 281 282 283 283